Regional Weather Roundup
Issued by NWS

Home | Current Version | Previous Version | Graphics & Text | Print | Product List | Glossary On
Versions: 1 2 3 4 5 6 7 8 9 10 11 12 13 14 15 16 17 18 19 20 21 22 23 24 25 26 27 28 29 30 31 32 33 34 35 36 37 38 39 40 41 42 43 44 45 46 47 48 49 50
942
ASUS43 KLOT 052108
RWRIL

ILLINOIS REGIONAL WEATHER ROUNDUP
NATIONAL WEATHER SERVICE CHICAGO/ROMEOVILLE IL
300 PM CST FRI FEB 05 2016

NOTE: "FAIR" INDICATES FEW OR NO CLOUDS BELOW 12,000 FEET WITH NO
SIGNIFICANT WEATHER AND/OR OBSTRUCTIONS TO VISIBILITY.

* THESE STATIONS ARE NOT UNDER NWS QUALITY CONTROL. THEY ALSO MAY NOT
  REPORT WEATHER SUCH AS PRECIPITATION OR FOG.

ILZ001-002-007-009-015-016-024-052200-
NORTHWEST ILLINOIS

CITY           SKY/WX    TMP DP  RH WIND       PRES   REMARKS
MOLINE         CLOUDY    32  19  58 CALM      30.36F
STERLING*      CLOUDY    30  19  64 W9        30.35S WCI  22
SAVANNA*       MOSUNNY   31  21  64 W5        30.37S WCI  27
$$

ILZ003-004-008-010-011-017-018-052200-
NORTH CENTRAL ILLINOIS

CITY           SKY/WX    TMP DP  RH WIND       PRES   REMARKS
ROCKFORD       CLOUDY    31  19  61 W7        30.37R WCI  24
FREEPORT*      CLOUDY    29  19  66 W7        30.36S WCI  22
ROCHELLE*      CLOUDY    30  22  70 W7        30.36R WCI  23
DE KALB*       MOSUNNY   30  22  72 NW9       30.35S WCI  22
PERU*          CLOUDY    31  23  73 NW6       30.38S WCI  25
$$

ILZ005-006-012>014-019>023-052200-
NORTHEAST ILLINOIS

CITY           SKY/WX    TMP DP  RH WIND       PRES   REMARKS
CHICAGO-OHARE  PTSUNNY   33  16  49 W8        30.33R WCI  26
CHICAGO-MIDWAY PTSUNNY   34  19  54 W7        30.34R WCI  28
AURORA         MOSUNNY   31  22  69 NW7       30.35S WCI  24
LANSING*       CLOUDY    32  23  70 W12       30.34S WCI  23
JOLIET*        CLOUDY    31  24  73 W5        30.37R WCI  26
WAUKEGAN       SUNNY     31  18  58 VRB6      30.32R WCI  25
DUPAGE AIRPORT MOSUNNY   31  18  58 NW7       30.33S WCI  24
KANKAKEE*      CLOUDY    30  23  75 W7        30.38R WCI  23
WHEELING       SUNNY     33  17  51 W7        30.35R WCI  27
MORRIS*        CLOUDY    29  22  75 W5        30.34S WCI  24
ROMEOVILLE*    CLOUDY    30  22  73 W9        30.35S WCI  22
NORTHERLY ISL    N/A     30  23  75 MISG        N/A
$$

LMZ740>746-052200-
SOUTHERN LAKE MICHIGAN

STATION/POSITION SKY/WX   TEMP    WIND        PRES    VSBY  WAVE
                          AIR SEA DIR/SP/G                  HT/PER
                          (F)     (DEG/KT/KT) (MB)    (MI)  (FT/S)
HARRISON CRIB              30     360/  9/ 10   N/A
BURNHAM HARBOR             30      40/  5/ 12   N/A
CALUMET HARBOR             30     350/  6/  8 1026.5F
BURNS HARBOR               30     340/ 10/ 14 1027.4F
MICHIGAN CITY              30     300/ 14/ 16   N/A
$$

ILZ025>027-034>036-040-047-049-050-058-095>099-052200-
WEST-CENTRAL ILLINOIS

CITY           SKY/WX    TMP DP  RH WIND       PRES   REMARKS
QUINCY         MOSUNNY   32  19  58 NW6       30.38S WCI  26
GALESBURG*     CLOUDY    30  21  68 CALM      30.37S
MACOMB*        PTSUNNY   31  21  67 CALM      30.40S
JACKSONVILLE*  CLOUDY    37  22  56 W6        30.39R WCI  32
PITTSFIELD*    MOSUNNY   35  14  42 NW6       30.38F WCI  30
$$

ILZ028>032-037-038-041>044-048-051>054-059>061-052200-
CENTRAL ILLINOIS

CITY           SKY/WX    TMP DP  RH WIND       PRES   REMARKS
PONTIAC        CLOUDY    30  25  80 NW7       30.39R WCI  24
BLOOMINGTON    CLOUDY    32  22  67 N3        30.37S
DECATUR        MOSUNNY   34  21  59 NW6       30.38S WCI  29
PEORIA         MOSUNNY   31  20  63 NW7       30.39R WCI  24
LACON*         CLOUDY    31  21  65 CALM      30.37F
LINCOLN*       PTSUNNY   33  25  71 NW3       30.39R
SPRINGFIELD    MOSUNNY   37  24  59 W7        30.39R WCI  32
TAYLORVILLE    MOSUNNY   34  23  64 W6        30.39R WCI  29
$$

ILZ033-039-045-046-055>057-062-063-052200-
EAST-CENTRAL ILLINOIS

CITY           SKY/WX    TMP DP  RH WIND       PRES   REMARKS
CHAMPAIGN      CLOUDY    32  23  69 W7        30.37S WCI  26
RANTOUL*       CLOUDY    32  25  74 NW9       30.37S WCI  24
MATTOON        MOSUNNY   32  23  69 N5        30.37S WCI  27
PARIS*         PTSUNNY   31  25  77 W9        30.39R WCI  23
$$

ILZ079-100>102-052200-
SOUTHWEST ILLINOIS

CITY           SKY/WX    TMP DP  RH WIND       PRES   REMARKS
ALTON          PTSUNNY   37  19  48 VRB5      30.39S WCI  34
BELLEVILLE     SUNNY     42  19  38 VRB5      30.37S
CAHOKIA*       SUNNY     42  15  33 CALM      30.38S
SPARTA*        SUNNY     41  23  47 W5        30.39S
$$

ILZ064>066-069>071-074>076-080>082-084>086-088>090-092>094-052200-
SOUTH-CENTRAL ILLINOIS

CITY           SKY/WX    TMP DP  RH WIND       PRES   REMARKS
CARBONDALE     CLOUDY    46  25  43 N7        30.38S
CAIRO*         MOSUNNY   49  28  45 SW9       30.38S
EFFINGHAM*     CLOUDY    37  27  67 CALM      30.40R
MARION         PTSUNNY   46  25  42 W6        30.38S
MT. VERNON     MOSUNNY   39  21  48 NW5       30.38F
CENTRALIA*     MOSUNNY   39  26  59 NW3       30.38S
SALEM*         CLOUDY    39  24  53 W7        30.38S WCI  34
METROPOLIS*    MOSUNNY   49  26  40 W9        30.38S
$$

ILZ067-068-072-073-078-083-087-091-052200-
SOUTHEAST ILLINOIS

CITY           SKY/WX    TMP DP  RH WIND       PRES   REMARKS
LAWRENCEVILLE  MOSUNNY   40  24  53 W8        30.38S
FLORA*         MOSUNNY   39  26  58 N7        30.39R WCI  34
FAIRFIELD*     MOSUNNY   42  24  50 CALM      30.37S
HARRISBURG*    SUNNY     47  25  41 NW10      30.37F
ROBINSON*      CLOUDY    37  23  58 NW7       30.39S WCI  31
CARMI*         SUNNY     45  25  45 W9        30.37S
$$

ABBREVIATIONS USED IN REMARKS
   TC - TEMPERATURE IN CELSIUS
  WCI - WIND CHILL INDEX
   HX - HEAT INDEX
  VSB - VISIBILITY
$$





USA.gov is the U.S. government's official web portal to all federal, state and local government web resources and services.